Regional Weather Roundup
Issued by NWS Jackson, KY

Home | Current Version | Previous Version | Text Only | Print | Product List | Glossary On
Versions: 1 2 3 4 5 6 7 8 9 10 11 12 13 14 15 16 17 18 19 20 21 22 23 24 25 26 27
000
ASUS43 KJKL 250910
RWRJKL

EAST KENTUCKY HOURLY WEATHER ROUNDUP
NATIONAL WEATHER SERVICE JACKSON KY
500 AM EDT WED MAY 25 2016

NOTE: "FAIR" INDICATES FEW OR NO CLOUDS BELOW 12,000 FEET WITH
NO SIGNIFICANT WEATHER AND/OR OBSTRUCTIONS TO VISIBILITY.

* THESE REPORTS ARE NOT UNDER NWS QUALITY CONTROL AND MAY NOT
  REPORT WEATHER SUCH AS PRECIPITATION AND FOG.

KYZ079-080-083-085-087-088-110-112-115-119-120-251000
...EASTERN KENTUCKY...

CITY           SKY/WX    TMP DP  RH WIND       PRES   REMARKS
JACKSON        CLEAR     61  47  59 S3        30.16S
LONDON         PTCLDY    56  50  80 CALM      30.15S
SOMERSET*      PTCLDY    54  54 100 CALM      30.15S
MONTICELLO*    CLEAR     57  55  93 VRB7      30.14S
WILLIAMSBURG*  MOSUNNY   57  54  88 SE7       30.16R
MIDDLESBORO*   CLEAR     51  50  98 CALM      30.20R
HARLAN APT*      N/A     52  50  93 CALM      30.20S
HAZARD APT*    SUNNY     54  52  94 CALM      30.16S
BLACK MTN*       N/A     59  46  63 SW7         N/A
PIKE CO APT*     N/A     58  54  86 S5        30.17R
MOREHEAD APT*  MOSUNNY   57  52  82 SE5       30.16R
ASHLAND*       CLEAR     54  52  94 CALM      30.12S
$$

KYZ035-036-041-042-044-050-067-078-099-251000
...CENTRAL KENTUCKY...

CITY           SKY/WX    TMP DP  RH WIND       PRES   REMARKS
MT STERLING*   MOCLDY    59  52  77 CALM      30.15S
FLEMING/MASON* MOCLDY    58  51  78 CALM      30.14S
DANVILLE*      PTCLDY    59  54  82 CALM      30.13S
RICHMOND*      PTCLDY    63  48  59 SE3       30.13S
LEXINGTON      PTCLDY    62  50  64 SE7       30.12S
FRANKFORT      CLOUDY    63  54  72 SE3       30.10S
LOUISVILLE     CLOUDY    69  56  62 SE6       30.07S
LEBANON*         N/A     66  55  68 SE8       30.10F
GLASGOW*       CLOUDY    65  57  73 CALM      30.08F
BOWLING GREEN  CLOUDY    67  61  81 CALM      30.07S
$$

KYZ091>093-OHZ055-061-077-WVZ005-015-034-035-042-251000
...SOUTHERN OHIO/WEST VIRGINIA...

CITY           SKY/WX    TMP DP  RH WIND       PRES   REMARKS
COVINGTON      CLOUDY    61  53  75 S5        30.10F
COLUMBUS       CLEAR     55  52  89 CALM      30.12R
DAYTON         CLOUDY    63  48  58 S7        30.11S
WILMINGTON     CLEAR     61  49  64 CALM      30.12S
HUNTINGTON       N/A     54  52  93 CALM      30.14R
CHARLESTON       N/A     52  51  97 CALM      30.16R
PINEVILLE*       N/A     49  47  90 MISG      30.25S
BECKLEY          N/A     51  47  86 CALM      30.22R
BLUEFIELD        N/A     56  46  69 W7        30.25R
LOGAN CO APT*    N/A     57  54  88 NE3       30.17F
$$

VAZ002-007-008-TNZ017-027-036-066-071-251000
...SOUTHWEST VIRGINIA/EAST TENNESSEE...

CITY           SKY/WX    TMP DP  RH WIND       PRES   REMARKS
WISE*            N/A     55  41  58 CALM      30.24S
JONESVILLE*      N/A     50  50 100 CALM      30.22R
ABINGDON*        N/A     54  51  87 CALM      30.23R
BRISTOL        PTCLDY    52  48  86 CALM      30.22R
SEVIERVILLE*   MOSUNNY   55  50  82 CALM      30.17R
KNOXVILLE      MOCLDY    60  53  77 NE5       30.15S
OAK RIDGE      CLEAR     59  56  89 CALM      30.18R
CROSSVILLE     PTCLDY    66  52  60 CALM      30.17S
NASHVILLE      CLOUDY    68  57  68 S5        30.08R
$$

...KEY TO REMARKS...
VSB - VISIBILITY IN MILES
WCI - WIND CHILL INDEX
HX  - HEAT INDEX

$$




USA.gov is the U.S. government's official web portal to all federal, state and local government web resources and services.